Temp
34 32 31 33 35 34 35 34 32 36 38 35 28 25 27 27 28 31 30 31 30 31 31 33 34 34 32 31 31 30 30 29 28 27 27 27 27 27 27 27 27 27 26 25
33 32 35 37 38 36 38 36 30 33 36 34 27 25 25 25 27 27 31 32 32 32 31 31 33 33 32 31 31 30 30 29 28 28 27 27 27 26 26 27 27 26 26 25
32 34 38 38 38 37 37 36 30 33 35 30 29 26 26 27 29 29 28 32 33 33 32 31 31 32 33 30 30 30 30 30 29 29 28 27 27 27 26 26 26 26 25 24
33 35 37 37 37 37 36 39 39 38 31 27 28 27 27 28 29 30 30 28 32 31 33 32 32 32 33 31 30 30 30 29 29 28 28 27 27 26 27 27 26 25 24 24
33 35 35 35 37 38 37 39 37 35 28 27 27 25 26 28 27 29 31 31 32 33 33 33 32 33 34 31 31 30 30 30 29 28 28 28 26 26 27 26 25 25 24 24
34 36 36 36 38 38 39 38 36 28 26 24 23 25 28 26 28 30 31 30 33 34 34 32 33 33 34 31 30 30 30 30 29 29 28 27 27 26 25 24 24 25 24 24
33 35 36 37 36 36 36 35 30 30 25 24 24 26 27 29 31 30 30 28 29 35 33 33 30 29 33 32 31 30 29 29 29 29 28 27 27 26 25 24 25 24 25 24
30 31 35 37 35 34 34 34 29 32 26 27 27 28 28 32 29 30 27 30 32 33 34 33 31 32 32 33 31 30 29 28 29 28 27 26 26 25 25 25 24 25 25 24
31 32 36 38 37 36 34 33 34 34 33 28 27 28 31 32 32 28 30 33 36 36 34 33 33 33 32 32 32 31 28 28 28 27 26 26 25 25 24 24 25 24 24 23
32 31 34 37 38 37 35 36 32 30 33 31 28 29 28 29 29 29 37 33 30 37 33 32 32 32 33 33 32 29 28 28 27 26 26 25 25 24 24 24 23 23 23 23
33 31 34 34 35 34 34 33 34 32 31 30 27 27 31 29 28 29 32 32 30 34 33 32 32 34 35 33 30 28 28 28 27 26 25 25 24 24 24 23 23 23 23 22
34 32 30 33 35 37 35 34 32 29 30 30 29 29 32 31 30 29 28 30 32 33 32 31 30 31 33 32 29 28 28 27 26 26 25 24 24 24 23 23 24 23 22 22
36 31 29 31 32 34 35 36 35 33 32 31 30 29 31 33 32 32 32 31 31 31 31 31 30 29 30 29 28 27 27 26 26 26 25 24 24 24 23 23 23 22 22 22
33 32 30 28 31 32 34 36 35 33 31 31 31 30 29 30 29 30 33 31 30 30 30 29 28 27 27 26 26 26 26 26 26 25 24 24 24 24 24 23 23 22 22 22
33 31 31 31 33 35 35 35 35 33 33 32 29 30 30 30 30 33 31 31 31 30 30 28 27 25 26 26 26 26 26 26 26 25 24 24 24 24 23 23 22 21 21 21
33 29 32 30 33 34 34 35 36 35 36 35 31 31 31 33 34 33 33 32 31 30 30 28 27 26 26 26 25 25 25 26 25 25 24 24 24 23 23 22 22 21 21 20
30 27 26 28 31 32 31 33 35 35 36 35 33 34 35 33 35 34 32 33 32 31 31 29 28 27 27 26 26 25 25 25 25 24 23 23 22 22 22 21 21 20 20 20
29 25 25 26 28 29 32 35 36 36 36 36 36 36 34 35 34 33 33 33 32 32 31 30 29 29 28 27 26 25 26 25 24 23 22 22 22 21 21 21 20 20 19 19
30 23 25 26 27 31 34 31 31 30 33 24 27 37 35 34 33 31 33 34 32 32 31 30 30 29 28 27 26 25 25 24 22 22 22 22 22 21 21 20 20 19 19 19
27 22 24 25 26 28 25 27 29 30 29 25 29 32 33 32 29 30 33 34 34 32 32 32 30 29 28 27 26 25 24 23 22 22 22 22 22 21 21 20 19 19 19 19
25 24 25 23 23 27 26 27 29 28 24 23 25 28 30 29 29 32 31 31 32 33 32 32 30 29 27 26 25 24 23 23 23 22 22 22 22 21 20 19 19 18 18 19
23 24 25 21 21 24 24 27 25 24 21 21 22 26 28 30 31 32 32 32 31 31 30 30 29 28 26 25 25 23 23 23 23 22 22 21 21 20 19 19 18 18 18 18
22 21 21 23 24 23 23 23 24 22 21 22 20 25 29 30 31 30 29 31 30 33 29 30 29 25 25 24 25 23 21 22 22 21 21 21 20 20 19 19 18 18 18 18
23 20 21 22 24 23 23 23 25 25 24 24 25 31 31 30 31 30 29 29 29 29 29 29 26 23 22 23 22 20 20 21 21 20 20 20 19 19 19 19 18 18 18 18
21 20 19 20 21 21 23 24 24 24 27 26 24 30 31 31 30 30 29 27 26 27 27 26 23 21 20 20 19 19 19 18 19 20 19 19 18 19 18 18 18 18 19 19
18 19 19 20 21 21 23 24 23 23 23 28 29 30 31 30 31 30 26 25 24 24 25 22 21 20 19 19 19 20 21 21 18 19 19 17 18 18 18 18 18 18 19 19
Height
728 753 763 745 735 734 734 751 762 736 717 733 765 783 780 766 763 750 746 746 749 750 747 750 755 759 763 766 771 776 780 782 786 790 793 796 796 798 798 799 800 800 801 803
744 758 730 717 720 729 725 741 765 744 720 739 769 781 773 765 765 761 746 740 741 743 745 747 752 756 759 763 768 772 776 780 783 786 790 793 794 795 795 795 797 797 800 802
754 737 713 719 722 729 729 739 759 752 733 754 771 788 782 773 752 743 743 729 730 734 740 743 748 752 755 759 763 768 773 777 780 783 787 790 790 791 793 795 795 797 798 799
739 717 719 722 727 720 743 713 716 726 760 802 773 806 768 755 747 738 735 740 730 731 731 736 742 746 751 754 759 764 769 773 776 779 783 785 785 788 790 790 792 795 795 796
742 729 728 731 723 709 729 706 720 734 778 791 800 812 781 751 754 740 728 728 722 721 724 730 735 740 743 748 754 760 765 769 772 775 778 782 784 787 788 789 791 793 795 795
726 701 710 714 703 703 701 715 726 758 779 823 824 821 783 775 754 737 723 725 720 710 714 723 728 735 739 743 749 755 760 764 767 770 774 779 784 785 787 788 791 792 793 794
734 724 706 699 720 707 713 736 789 796 817 828 801 813 784 757 740 737 731 734 721 706 708 714 726 730 734 740 744 750 755 759 763 766 771 776 780 782 785 788 789 791 793 793
765 769 718 696 712 730 728 735 784 794 819 810 788 795 770 741 731 723 724 717 713 695 704 709 717 723 727 734 739 744 750 755 760 765 769 773 778 781 784 786 788 791 791 792
754 747 696 691 690 703 728 747 722 751 749 792 791 775 749 734 735 741 728 706 692 693 698 704 710 717 723 729 733 738 745 752 757 763 768 772 775 780 783 787 788 790 792 793
727 757 709 692 681 691 711 705 756 759 777 790 793 777 775 752 745 726 700 703 707 693 699 703 706 712 718 722 729 735 741 748 756 762 767 771 776 780 784 786 788 790 792 794
710 732 723 705 712 720 719 732 726 738 753 784 808 793 730 741 735 727 709 705 710 700 701 703 706 710 714 720 726 734 741 749 756 761 766 770 775 780 783 786 788 790 792 794
697 720 748 727 691 686 694 712 724 767 768 756 765 776 712 720 730 731 723 711 704 700 702 703 706 710 714 719 727 734 741 747 753 758 764 770 775 779 782 785 787 790 793 794
691 729 758 746 719 696 705 700 704 715 725 752 768 765 708 705 713 721 711 706 701 703 705 707 710 713 716 720 727 733 740 745 752 758 764 770 774 777 780 783 787 790 792 794
689 717 739 767 743 716 719 702 700 714 747 746 747 746 733 725 726 717 696 695 699 703 705 707 712 716 719 722 727 733 739 744 751 757 764 769 773 776 780 783 787 790 792 793
696 731 723 720 710 704 707 705 700 715 715 737 747 737 728 719 718 705 698 697 698 704 707 710 713 717 721 726 730 735 739 745 750 758 764 768 772 776 780 784 788 791 793 795
691 732 716 730 709 705 711 697 694 695 695 702 722 726 695 689 686 687 691 691 697 701 703 707 711 715 721 726 732 736 741 746 751 757 763 767 771 775 780 784 787 790 793 794
714 730 746 750 719 717 734 708 697 693 683 692 716 695 678 690 685 681 686 684 689 692 694 700 704 709 715 722 728 735 741 747 753 758 762 766 771 775 781 785 789 792 794 795
720 736 743 754 740 763 710 680 678 685 679 675 675 672 678 677 678 672 669 678 683 686 688 691 697 704 711 718 726 733 739 746 753 759 764 769 773 777 782 786 789 791 794 796
702 733 748 759 759 728 701 706 710 714 703 708 699 664 664 666 667 681 672 674 678 678 680 685 690 699 707 715 724 732 740 747 754 759 763 768 771 776 780 783 787 790 791 793
710 728 741 748 761 762 751 716 689 684 726 709 692 682 675 672 707 698 672 669 670 675 677 683 689 696 704 713 720 731 739 745 753 759 764 769 772 776 780 783 785 787 791 792
745 744 752 762 777 741 732 706 679 725 754 722 712 694 687 693 688 677 671 673 671 672 676 679 685 692 700 708 717 727 737 745 750 755 761 765 769 773 778 784 788 788 788 792
757 764 757 777 790 777 731 717 738 738 730 726 712 703 698 684 682 678 673 672 670 668 667 679 686 693 699 705 713 723 732 740 746 755 761 767 772 775 779 782 786 789 789 790
769 765 767 762 757 737 730 738 732 727 730 718 716 703 697 684 686 683 680 674 673 672 674 680 687 695 702 707 710 720 730 736 744 753 759 765 769 771 774 770 781 785 789 791
752 754 758 758 742 736 734 730 720 722 722 710 699 695 687 688 684 688 685 680 677 676 677 682 688 698 708 718 723 720 737 739 745 755 761 763 767 771 774 778 783 786 785 791
744 748 751 745 734 732 721 714 718 717 713 712 710 695 695 692 689 688 688 686 681 679 682 682 691 706 716 721 728 732 728 740 736 752 763 770 772 773 774 781 784 785 784 787
739 739 745 743 719 720 716 707 712 712 711 708 705 693 696 697 694 689 689 688 686 688 691 697 696 703 711 715 717 725 726 724 740 756 756 758 763 771 775 781 784 787 786 786
Wind_Speed
10 5 9 12 9 9 9 14 17 4 4 4 15 17 10 13 15 4 10 13 10 10 10 24 20 21 25 34 30 26 23 16 24 22 21 18 17 15 17 19 14 9 19 14
7 10 15 17 6 18 3 2 10 22 12 10 14 10 5 15 9 6 7 16 15 13 11 14 23 26 23 35 33 29 26 24 24 22 20 15 13 11 5 11 13 12 12 12
8 14 16 17 17 9 4 2 8 14 3 12 6 6 6 10 13 3 6 16 17 17 17 16 16 23 27 33 36 34 30 26 27 23 18 17 17 15 14 8 11 10 10 9
10 12 15 16 13 7 5 3 3 3 8 4 7 4 8 7 12 8 5 7 15 13 17 18 17 19 27 32 36 37 34 29 26 24 20 20 19 14 11 12 13 6 4 6
12 13 11 11 12 9 6 5 6 16 16 8 17 5 8 8 10 11 9 4 12 16 17 19 19 24 28 32 35 37 36 31 29 27 24 21 14 13 10 9 8 3 1 4
11 12 6 8 12 9 11 5 6 8 4 5 10 3 8 4 9 7 14 10 12 18 18 15 23 26 25 29 34 37 38 37 32 26 25 21 12 14 9 12 7 2 0 2
10 12 13 9 8 8 8 2 3 3 4 3 8 6 9 10 12 11 16 14 24 19 17 20 15 12 25 24 33 34 38 36 34 28 25 22 17 7 10 6 3 3 2 0
7 8 14 11 11 10 8 5 5 5 5 4 10 6 5 1 8 9 16 20 21 10 16 18 16 21 27 27 31 32 35 30 32 23 19 16 11 10 4 6 4 3 3 8
4 9 8 7 11 8 9 7 8 4 2 4 4 4 7 2 6 11 24 3 3 5 13 17 15 26 29 28 31 34 32 30 28 23 18 16 14 9 6 10 6 5 11 8
10 9 9 15 6 8 8 5 4 4 2 1 2 3 5 5 5 10 2 7 10 1 8 9 11 17 25 29 30 34 34 33 26 23 20 18 15 12 11 10 8 10 9 9
10 6 16 8 4 8 2 4 4 1 3 4 4 6 6 14 10 15 9 9 10 6 8 7 8 18 25 28 34 31 31 30 28 26 21 16 15 12 10 11 8 10 11 9
8 6 6 10 13 7 9 8 8 5 9 3 6 4 7 13 12 10 14 11 8 6 5 7 8 13 17 23 30 30 33 32 32 26 21 19 19 15 17 13 13 12 11 10
2 3 3 9 11 9 6 7 6 3 2 4 5 4 2 4 1 15 22 11 9 9 8 6 8 7 10 22 27 30 33 33 30 26 25 24 21 19 17 18 15 13 12 12
6 3 4 6 9 7 6 6 8 7 2 5 1 3 7 8 13 21 13 14 11 9 9 8 8 7 15 21 25 27 29 32 31 27 24 20 21 16 22 18 15 12 12 13
6 5 6 10 10 10 10 10 10 9 8 5 8 12 13 13 19 10 8 9 12 10 8 8 8 10 15 18 22 26 30 31 30 26 21 22 20 24 23 22 19 15 12 9
2 5 5 8 11 13 12 13 12 7 9 7 16 7 11 17 20 12 14 16 14 13 11 9 11 12 14 19 21 24 28 29 26 24 25 27 28 26 22 18 13 11 8 7
3 4 5 6 9 10 10 10 8 8 4 7 7 9 18 12 10 11 13 17 18 16 16 15 16 14 20 22 26 25 27 24 26 29 27 27 25 21 17 14 13 10 9 10
2 4 3 3 7 6 10 10 11 10 9 9 5 7 19 13 7 12 5 11 14 15 16 15 15 20 25 27 27 28 28 28 28 28 27 23 22 21 17 12 12 12 10 8
5 5 4 4 3 10 11 10 10 8 3 20 17 4 9 11 15 8 8 6 8 16 16 14 25 26 27 29 30 30 28 28 28 28 27 24 22 17 16 15 13 12 10 8
8 8 4 4 4 7 15 23 24 17 4 22 19 16 10 11 9 2 7 7 7 6 16 17 26 27 29 29 35 30 27 27 25 27 26 23 19 19 18 17 14 11 9 9
5 4 4 3 3 3 21 26 20 6 6 18 16 14 11 7 4 1 8 7 6 2 12 22 30 27 28 36 38 28 27 24 29 29 27 23 21 19 19 13 9 10 8 8
3 1 1 5 1 14 19 14 8 4 5 11 9 16 13 8 9 7 6 7 8 8 13 25 23 23 32 40 38 28 26 31 33 31 28 23 19 19 14 12 11 8 8 6
4 3 1 3 3 4 5 4 4 6 7 6 3 12 13 8 8 8 8 8 8 2 12 23 21 24 28 33 38 30 29 36 36 31 28 22 17 18 16 19 14 10 7 7
1 3 4 1 3 5 7 10 4 1 13 8 5 5 13 7 9 7 8 8 7 5 7 17 23 22 20 24 25 33 31 35 33 29 26 23 21 18 14 10 8 8 5 4
5 4 7 5 7 9 11 7 8 10 11 2 11 13 8 8 7 5 5 8 7 5 15 22 22 25 29 33 33 30 28 14 29 25 18 16 14 14 13 8 8 11 13 8
6 6 4 6 7 6 7 6 3 9 19 14 10 4 6 8 5 6 5 5 11 12 14 17 23 31 32 38 43 40 40 32 25 20 21 23 20 14 15 12 11 9 8 5
Wind_Direction
245 231 250 258 212 232 242 157 240 16 250 121 156 110 320 337 13 255 163 157 165 181 182 173 186 192 170 168 171 175 180 178 188 187 195 210 232 245 260 252 237 266 232 242
260 243 246 266 188 289 240 115 55 331 291 54 100 90 250 10 312 294 234 167 176 177 176 175 188 190 176 172 176 179 185 186 184 191 200 214 232 236 300 230 236 264 247 270
233 244 251 256 267 268 292 179 145 218 172 57 142 139 154 203 252 281 325 181 183 180 181 176 187 188 196 176 182 184 189 192 201 207 209 219 220 238 261 257 252 257 273 291
250 262 267 273 283 251 232 217 273 315 62 50 333 298 311 280 302 320 236 275 179 190 179 175 187 189 197 185 185 188 190 194 202 203 202 216 225 235 267 258 257 229 281 315
250 243 260 276 275 298 262 289 317 71 101 78 1 18 275 298 307 280 270 253 204 186 181 181 187 194 193 189 185 188 191 194 200 205 212 216 227 223 255 256 165 168 291 343
263 280 271 246 268 271 291 320 329 79 96 76 261 256 280 252 242 283 270 265 243 177 179 175 186 185 196 179 180 188 194 198 199 205 211 209 213 218 164 139 141 145 202 20
282 275 279 271 302 302 292 174 293 17 11 198 212 190 264 313 272 276 281 311 279 186 170 174 175 178 190 177 180 184 187 192 199 201 203 203 215 208 150 151 109 141 179 238
215 282 237 230 214 219 254 197 169 254 173 174 170 214 250 223 94 266 268 259 262 161 166 170 181 187 183 198 177 181 186 186 192 184 183 185 188 193 183 156 182 158 224 148
301 267 293 276 212 188 256 276 240 282 348 106 185 285 295 172 295 258 246 273 147 154 154 175 178 173 186 189 178 173 174 175 178 178 177 172 172 170 174 163 134 138 124 103
240 272 281 303 145 223 177 226 326 336 342 70 258 206 226 223 247 281 150 277 305 109 142 147 161 161 170 171 162 166 168 166 166 167 170 167 166 148 149 148 125 148 123 111
206 194 279 338 243 192 250 251 266 178 153 194 139 261 217 192 200 228 226 227 266 167 136 149 138 155 160 146 154 152 154 160 164 163 162 164 161 166 161 152 149 129 127 126
225 196 239 250 278 263 194 211 192 135 278 207 129 250 304 184 193 244 266 236 203 146 135 140 119 128 141 130 145 147 154 156 160 156 158 164 163 167 161 160 134 145 144 134
254 293 287 323 323 319 196 211 237 240 224 224 144 253 220 133 241 231 221 181 145 150 143 135 121 127 126 123 138 140 146 147 149 152 155 158 164 171 172 145 139 141 129 129
51 335 198 214 226 254 320 215 215 211 250 268 136 129 3 37 16 292 150 159 150 153 158 148 129 111 115 122 130 136 139 146 151 158 162 167 172 177 154 146 149 143 142 139
139 229 275 281 280 289 284 290 237 202 214 226 191 135 154 154 199 239 177 149 145 150 152 146 134 124 120 122 129 135 143 151 157 158 164 171 164 147 142 137 130 129 128 115
205 250 270 291 300 300 299 295 296 235 210 228 156 200 198 185 208 217 180 168 158 165 165 154 142 136 138 138 136 140 148 155 158 166 155 142 142 139 139 141 138 133 131 141
15 68 32 270 277 300 300 272 285 283 277 203 219 234 159 180 203 211 182 174 173 176 174 165 164 158 151 152 151 150 159 161 161 152 145 142 137 132 132 133 131 144 149 142
190 104 121 265 324 253 259 263 268 266 275 287 290 216 169 184 142 64 160 168 177 182 186 170 166 163 156 154 152 154 158 159 153 150 147 141 137 133 140 150 146 140 139 136
194 141 144 124 293 277 277 12 341 342 356 12 334 245 129 108 77 35 60 105 201 194 187 178 169 162 157 156 152 152 152 154 145 146 149 150 148 152 154 150 154 152 156 149
47 73 116 28 113 275 2 332 316 304 74 348 350 12 44 73 74 329 33 26 20 182 176 170 159 158 152 154 153 150 151 150 145 151 152 155 157 157 157 152 149 147 151 147
24 14 39 353 0 339 358 346 326 54 322 322 333 5 19 48 145 79 67 24 356 296 172 153 153 152 153 151 151 149 150 148 156 156 157 155 156 157 150 148 147 144 140 153
58 33 81 81 212 248 2 354 39 248 250 263 326 351 344 6 18 16 41 22 345 334 149 146 146 147 149 149 149 144 151 157 154 156 152 142 143 141 145 145 146 149 159 176
39 72 334 324 219 213 348 278 233 221 263 256 277 314 317 22 353 0 0 12 346 97 132 145 145 141 149 151 151 145 147 152 151 152 146 148 155 165 172 153 162 166 191 223
35 246 166 277 248 274 254 266 299 352 272 288 258 265 316 6 358 356 345 334 2 345 133 127 131 129 115 132 126 133 139 147 143 136 145 157 160 153 149 153 170 181 195 193
206 166 197 212 218 269 257 245 271 317 319 211 311 311 337 334 331 348 327 343 11 36 106 140 126 112 107 112 112 114 112 90 120 133 150 162 163 161 149 172 207 168 132 135
182 191 160 225 217 192 235 188 138 15 305 303 280 230 286 306 318 339 60 47 52 37 83 87 119 126 133 135 137 139 134 117 152 189 188 180 175 174 168 161 139 157 130 112